Torna al catalogo

STARLINK-37586

AttivoComunicazioniVLEO
NORAD 69521·PAYLOAD·🇺🇸 United States

Lanciato Jun 12, 2026 da Cape Canaveral Space Force Station

Loading…

Prossimi Passaggi (prossime 24 ore)

TLE

AggiornatoSource: CelesTrak SupGP

Epoca: Sep 14, 2026, 23:13 UTC

1 69521C 26133P   26257.96784722  .00035171  00000+0  10391-2 0  2574
2 69521  53.1563 255.4573 0001201  92.1300 359.4427 15.34374517    13

Traccia STARLINK-37586 in tempo reale con AllMySat

Download on the App Store